Time,TemperatureF,DewpointF,PressureIn,WindDirection,WindDirectionDegrees,WindSpeedMPH,WindSpeedGustMPH,Humidity,HourlyPrecipIn,Conditions,Clouds,dailyrainin,SolarRadiationWatts/m^2,SoftwareType,DateUTC
2013-08-26 00:12:00,62.0,58.0,29.95,South,182,2.0,5.0,87,0.00,,,0.00,0,weatherlink.com 1.10,2013-08-26 07:12:00,
2013-08-26 00:27:00,62.0,58.0,29.94,South,171,2.0,5.0,86,0.00,,,0.00,0,weatherlink.com 1.10,2013-08-26 07:27:00,
2013-08-26 00:42:00,61.9,58.0,29.94,SW,220,0.0,5.0,87,0.00,,,0.00,0,weatherlink.com 1.10,2013-08-26 07:42:00,
2013-08-26 00:57:00,61.8,58.0,29.94,SW,220,1.0,5.0,88,0.00,,,0.00,0,weatherlink.com 1.10,2013-08-26 07:57:00,
2013-08-26 01:12:00,61.5,58.0,29.95,SSW,195,1.0,6.0,88,0.00,,,0.00,0,weatherlink.com 1.10,2013-08-26 08:12:00,
2013-08-26 01:27:00,61.3,58.0,29.95,SW,221,4.0,7.0,88,0.00,,,0.00,0,weatherlink.com 1.10,2013-08-26 08:27:00,
2013-08-26 01:42:00,61.2,58.0,29.95,South,177,2.0,5.0,88,0.00,,,0.00,0,weatherlink.com 1.10,2013-08-26 08:42:00,
2013-08-26 01:58:00,61.1,58.0,29.95,SW,221,2.0,4.0,88,0.00,,,0.00,0,weatherlink.com 1.10,2013-08-26 08:58:00,
2013-08-26 02:13:00,61.0,58.0,29.95,SW,219,0.0,4.0,89,0.00,,,0.00,0,weatherlink.com 1.10,2013-08-26 09:13:00,
2013-08-26 02:28:00,61.0,58.0,29.95,SW,217,0.0,4.0,89,0.00,,,0.00,0,weatherlink.com 1.10,2013-08-26 09:28:00,
2013-08-26 02:43:00,60.9,58.0,29.95,SSW,207,1.0,3.0,89,0.00,,,0.00,0,weatherlink.com 1.10,2013-08-26 09:43:00,
2013-08-26 02:58:00,60.9,58.0,29.96,SSE,168,0.0,5.0,89,0.00,,,0.00,0,weatherlink.com 1.10,2013-08-26 09:58:00,
2013-08-26 03:13:00,60.8,57.0,29.96,South,177,0.0,4.0,88,0.00,,,0.00,0,weatherlink.com 1.10,2013-08-26 10:13:00,
2013-08-26 03:28:00,60.7,57.0,29.96,SW,214,2.0,4.0,88,0.00,,,0.00,0,weatherlink.com 1.10,2013-08-26 10:28:00,
2013-08-26 03:43:00,60.6,57.0,29.96,South,178,0.0,5.0,88,0.00,,,0.00,0,weatherlink.com 1.10,2013-08-26 10:43:00,
2013-08-26 03:58:00,60.5,57.0,29.96,SSE,167,0.0,4.0,88,0.00,,,0.00,0,weatherlink.com 1.10,2013-08-26 10:58:00,
2013-08-26 04:13:00,60.5,57.0,29.97,SSE,155,2.0,4.0,88,0.00,,,0.00,0,weatherlink.com 1.10,2013-08-26 11:13:00,
2013-08-26 04:28:00,60.4,57.0,29.97,SSW,204,0.0,4.0,89,0.00,,,0.00,0,weatherlink.com 1.10,2013-08-26 11:28:00,
2013-08-26 04:43:00,60.3,57.0,29.97,SSE,164,2.0,4.0,90,0.00,,,0.00,0,weatherlink.com 1.10,2013-08-26 11:43:00,
2013-08-26 04:58:00,60.2,57.0,29.97,SSE,164,0.0,3.0,90,0.00,,,0.00,0,weatherlink.com 1.10,2013-08-26 11:58:00,
2013-08-26 05:13:00,60.0,57.0,29.98,SSE,149,1.0,4.0,91,0.00,,,0.00,0,weatherlink.com 1.10,2013-08-26 12:13:00,
2013-08-26 05:28:00,60.0,58.0,29.98,South,187,1.0,4.0,92,0.00,,,0.00,0,weatherlink.com 1.10,2013-08-26 12:28:00,
2013-08-26 05:43:00,60.0,58.0,29.98,SSE,167,1.0,3.0,93,0.00,,,0.00,0,weatherlink.com 1.10,2013-08-26 12:43:00,
2013-08-26 05:58:00,59.9,58.0,29.98,South,190,1.0,3.0,93,0.00,,,0.00,0,weatherlink.com 1.10,2013-08-26 12:58:00,
2013-08-26 06:13:00,59.9,58.0,29.98,SSW,192,1.0,5.0,93,0.00,,,0.00,0,weatherlink.com 1.10,2013-08-26 13:13:00,
2013-08-26 06:28:00,59.8,58.0,29.98,SSW,200,1.0,4.0,93,0.00,,,0.00,0,weatherlink.com 1.10,2013-08-26 13:28:00,
2013-08-26 06:43:00,59.8,58.0,29.98,SW,228,1.0,3.0,93,0.00,,,0.00,0,weatherlink.com 1.10,2013-08-26 13:43:00,
2013-08-26 06:58:00,59.7,57.0,29.99,South,190,2.0,4.0,92,0.00,,,0.00,5,weatherlink.com 1.10,2013-08-26 13:58:00,
2013-08-26 07:13:00,59.6,57.0,29.99,SSW,207,0.0,3.0,91,0.00,,,0.00,12,weatherlink.com 1.10,2013-08-26 14:13:00,
2013-08-26 07:28:00,59.8,57.0,29.99,South,187,0.0,3.0,89,0.00,,,0.00,21,weatherlink.com 1.10,2013-08-26 14:28:00,
2013-08-26 07:43:00,60.0,57.0,30.00,SE,145,2.0,3.0,88,0.00,,,0.00,30,weatherlink.com 1.10,2013-08-26 14:43:00,
2013-08-26 07:58:00,60.2,57.0,30.00,SE,144,0.0,4.0,88,0.00,,,0.00,40,weatherlink.com 1.10,2013-08-26 14:58:00,
2013-08-26 08:13:00,60.5,57.0,30.00,SSE,153,1.0,3.0,87,0.00,,,0.00,54,weatherlink.com 1.10,2013-08-26 15:13:00,
2013-08-26 08:28:00,60.7,57.0,30.00,SSE,167,2.0,3.0,88,0.00,,,0.00,53,weatherlink.com 1.10,2013-08-26 15:28:00,
2013-08-26 08:43:00,61.0,58.0,30.00,SSE,166,0.0,3.0,88,0.00,,,0.00,134,weatherlink.com 1.10,2013-08-26 15:43:00,
2013-08-26 08:58:00,61.3,58.0,30.00,South,191,1.0,6.0,88,0.00,,,0.00,134,weatherlink.com 1.10,2013-08-26 15:58:00,
2013-08-26 09:13:00,61.4,58.0,30.01,SE,140,1.0,4.0,87,0.00,,,0.00,125,weatherlink.com 1.10,2013-08-26 16:13:00,
2013-08-26 09:28:00,61.6,58.0,30.00,SSE,152,4.0,4.0,87,0.00,,,0.00,199,weatherlink.com 1.10,2013-08-26 16:28:00,
2013-08-26 09:43:00,61.7,58.0,30.01,South,189,2.0,4.0,86,0.00,,,0.00,221,weatherlink.com 1.10,2013-08-26 16:43:00,
2013-08-26 09:58:00,61.8,58.0,30.01,SSW,208,0.0,3.0,86,0.00,,,0.00,186,weatherlink.com 1.10,2013-08-26 16:58:00,
2013-08-26 10:13:00,61.9,58.0,30.01,South,173,0.0,3.0,86,0.00,,,0.00,271,weatherlink.com 1.10,2013-08-26 17:13:00,
2013-08-26 10:28:00,62.6,58.0,30.01,SSE,158,2.0,6.0,84,0.00,,,0.00,297,weatherlink.com 1.10,2013-08-26 17:28:00,
2013-08-26 10:43:00,62.9,58.0,30.01,SSE,155,3.0,5.0,84,0.00,,,0.00,308,weatherlink.com 1.10,2013-08-26 17:43:00,
2013-08-26 10:59:00,63.4,58.0,30.00,SSE,165,1.0,5.0,83,0.00,,,0.00,304,weatherlink.com 1.10,2013-08-26 17:59:00,
2013-08-26 11:14:00,64.1,58.0,30.00,SE,128,3.0,6.0,81,0.00,,,0.00,413,weatherlink.com 1.10,2013-08-26 18:14:00,
2013-08-26 11:29:00,64.8,59.0,30.00,SW,229,2.0,7.0,80,0.00,,,0.00,817,weatherlink.com 1.10,2013-08-26 18:29:00,
2013-08-26 11:44:00,66.0,59.0,30.00,SSE,162,2.0,6.0,79,0.00,,,0.00,821,weatherlink.com 1.10,2013-08-26 18:44:00,
2013-08-26 11:59:00,66.1,59.0,30.00,SSW,199,3.0,8.0,78,0.00,,,0.00,849,weatherlink.com 1.10,2013-08-26 18:59:00,
2013-08-26 12:14:00,66.7,60.0,29.99,SSW,205,2.0,7.0,78,0.00,,,0.00,867,weatherlink.com 1.10,2013-08-26 19:14:00,
2013-08-26 12:29:00,66.9,59.0,29.99,SW,229,2.0,8.0,77,0.00,,,0.00,881,weatherlink.com 1.10,2013-08-26 19:29:00,
2013-08-26 12:44:00,66.9,60.0,29.98,SSE,156,3.0,7.0,78,0.00,,,0.00,888,weatherlink.com 1.10,2013-08-26 19:44:00,
2013-08-26 12:59:00,66.6,60.0,29.98,SSE,156,3.0,8.0,78,0.00,,,0.00,896,weatherlink.com 1.10,2013-08-26 19:59:00,
2013-08-26 13:14:00,67.5,60.0,29.98,SSE,155,9.0,9.0,76,0.00,,,0.00,902,weatherlink.com 1.10,2013-08-26 20:14:00,
2013-08-26 13:29:00,67.1,60.0,29.97,SSE,160,2.0,10.0,77,0.00,,,0.00,896,weatherlink.com 1.10,2013-08-26 20:29:00,
2013-08-26 13:44:00,67.1,59.0,29.97,South,181,2.0,11.0,76,0.00,,,0.00,895,weatherlink.com 1.10,2013-08-26 20:44:00,
2013-08-26 13:59:00,66.5,59.0,29.97,ESE,113,3.0,9.0,77,0.00,,,0.00,886,weatherlink.com 1.10,2013-08-26 20:59:00,
2013-08-26 14:14:00,67.3,59.0,29.96,South,184,3.0,8.0,74,0.00,,,0.00,874,weatherlink.com 1.10,2013-08-26 21:14:00,
2013-08-26 14:29:00,66.6,58.0,29.96,SE,138,3.0,9.0,75,0.00,,,0.00,856,weatherlink.com 1.10,2013-08-26 21:29:00,
2013-08-26 14:44:00,67.7,59.0,29.96,SW,217,2.0,11.0,73,0.00,,,0.00,838,weatherlink.com 1.10,2013-08-26 21:44:00,
2013-08-26 14:59:00,66.8,59.0,29.95,SSE,153,6.0,10.0,75,0.00,,,0.00,812,weatherlink.com 1.10,2013-08-26 21:59:00,
2013-08-26 15:14:00,66.3,59.0,29.94,SE,126,4.0,12.0,77,0.00,,,0.00,789,weatherlink.com 1.10,2013-08-26 22:14:00,
2013-08-26 15:29:00,65.9,59.0,29.94,SE,127,7.0,12.0,77,0.00,,,0.00,758,weatherlink.com 1.10,2013-08-26 22:29:00,
2013-08-26 15:44:00,66.2,59.0,29.93,South,171,5.0,12.0,78,0.00,,,0.00,726,weatherlink.com 1.10,2013-08-26 22:44:00,
2013-08-26 15:59:00,66.9,59.0,29.93,SE,127,5.0,10.0,77,0.00,,,0.00,691,weatherlink.com 1.10,2013-08-26 22:59:00,
2013-08-26 16:14:00,67.2,59.0,29.93,SSE,162,4.0,12.0,75,0.00,,,0.00,652,weatherlink.com 1.10,2013-08-26 23:14:00,
2013-08-26 16:29:00,67.1,59.0,29.93,SE,145,5.0,10.0,75,0.00,,,0.00,613,weatherlink.com 1.10,2013-08-26 23:29:00,
2013-08-26 16:44:00,68.2,59.0,29.92,SE,132,6.0,11.0,73,0.00,,,0.00,568,weatherlink.com 1.10,2013-08-26 23:44:00,
2013-08-26 16:59:00,68.6,60.0,29.92,SE,136,2.0,11.0,73,0.00,,,0.00,522,weatherlink.com 1.10,2013-08-26 23:59:00,
2013-08-26 17:14:00,69.4,60.0,29.92,South,186,4.0,7.0,72,0.00,,,0.00,480,weatherlink.com 1.10,2013-08-27 00:14:00,
2013-08-26 17:29:00,69.4,60.0,29.92,SE,142,4.0,6.0,72,0.00,,,0.00,431,weatherlink.com 1.10,2013-08-27 00:29:00,
2013-08-26 17:44:00,68.7,59.0,29.91,SSE,148,2.0,8.0,72,0.00,,,0.00,381,weatherlink.com 1.10,2013-08-27 00:44:00,
2013-08-26 17:59:00,68.7,59.0,29.91,SE,134,3.0,6.0,72,0.00,,,0.00,329,weatherlink.com 1.10,2013-08-27 00:59:00,
2013-08-26 18:14:00,68.6,59.0,29.91,ESE,123,4.0,6.0,71,0.00,,,0.00,84,weatherlink.com 1.10,2013-08-27 01:14:00,
2013-08-26 18:29:00,68.6,59.0,29.91,South,182,1.0,5.0,71,0.00,,,0.00,120,weatherlink.com 1.10,2013-08-27 01:29:00,
2013-08-26 18:44:00,68.1,58.0,29.90,SSE,147,1.0,4.0,71,0.00,,,0.00,28,weatherlink.com 1.10,2013-08-27 01:44:00,
2013-08-26 18:59:00,67.4,58.0,29.90,SSE,160,0.0,4.0,72,0.00,,,0.00,23,weatherlink.com 1.10,2013-08-27 01:59:00,
2013-08-26 19:14:00,67.0,58.0,29.90,SSW,196,0.0,4.0,72,0.00,,,0.00,16,weatherlink.com 1.10,2013-08-27 02:14:00,
2013-08-26 19:29:00,66.1,58.0,29.90,SSE,161,2.0,5.0,75,0.00,,,0.00,11,weatherlink.com 1.10,2013-08-27 02:29:00,
2013-08-26 19:44:00,64.9,58.0,29.91,SSE,154,0.0,3.0,79,0.00,,,0.00,5,weatherlink.com 1.10,2013-08-27 02:44:00,
2013-08-26 19:59:00,64.2,58.0,29.91,SSE,153,0.0,3.0,80,0.00,,,0.00,0,weatherlink.com 1.10,2013-08-27 02:59:00,
2013-08-26 20:14:00,63.8,58.0,29.91,SSE,148,2.0,3.0,81,0.00,,,0.00,0,weatherlink.com 1.10,2013-08-27 03:14:00,
2013-08-26 20:29:00,63.5,58.0,29.91,SSE,148,1.0,3.0,82,0.00,,,0.00,0,weatherlink.com 1.10,2013-08-27 03:29:00,
2013-08-26 20:44:00,63.1,58.0,29.91,SE,146,0.0,2.0,82,0.00,,,0.00,0,weatherlink.com 1.10,2013-08-27 03:44:00,
2013-08-26 20:59:00,62.7,58.0,29.91,SE,146,0.0,3.0,83,0.00,,,0.00,0,weatherlink.com 1.10,2013-08-27 03:59:00,
2013-08-26 21:14:00,62.3,57.0,29.91,SE,144,2.0,4.0,84,0.00,,,0.00,0,weatherlink.com 1.10,2013-08-27 04:14:00,
2013-08-26 21:29:00,62.1,57.0,29.91,SSE,151,2.0,4.0,84,0.00,,,0.00,0,weatherlink.com 1.10,2013-08-27 04:29:00,
2013-08-26 21:44:00,61.9,57.0,29.91,SE,141,2.0,5.0,84,0.00,,,0.00,0,weatherlink.com 1.10,2013-08-27 04:44:00,
2013-08-26 21:59:00,61.6,57.0,29.91,SSE,162,1.0,5.0,86,0.00,,,0.00,0,weatherlink.com 1.10,2013-08-27 04:59:00,
2013-08-26 22:14:00,61.3,57.0,29.91,SSE,147,2.0,6.0,87,0.00,,,0.00,0,weatherlink.com 1.10,2013-08-27 05:14:00,
2013-08-26 22:29:00,61.1,57.0,29.91,SSE,161,3.0,7.0,87,0.00,,,0.00,0,weatherlink.com 1.10,2013-08-27 05:29:00,
2013-08-26 22:44:00,60.9,57.0,29.91,SSE,152,4.0,7.0,88,0.00,,,0.00,0,weatherlink.com 1.10,2013-08-27 05:44:00,
2013-08-26 22:59:00,60.7,57.0,29.91,SE,144,2.0,6.0,88,0.00,,,0.00,0,weatherlink.com 1.10,2013-08-27 05:59:00,
2013-08-26 23:14:00,60.4,57.0,29.91,SE,140,2.0,8.0,89,0.00,,,0.00,0,weatherlink.com 1.10,2013-08-27 06:14:00,
2013-08-26 23:29:00,60.2,57.0,29.90,SE,145,3.0,5.0,90,0.00,,,0.00,0,weatherlink.com 1.10,2013-08-27 06:29:00,
2013-08-26 23:44:00,59.9,57.0,29.90,SE,134,3.0,5.0,90,0.00,,,0.00,0,weatherlink.com 1.10,2013-08-27 06:44:00,
2013-08-26 23:59:00,59.8,57.0,29.90,SE,138,3.0,5.0,90,0.00,,,0.00,0,weatherlink.com 1.10,2013-08-27 06:59:00,